Metropolis, IL

4:05 PM CDT on August 19, 2017 (GMT -0500)
Metropolis

Weather History for KM30 - February, 2014

Change the Weather History Date:

Monday, February 3, 2014

  Actual Average (KPAH) Record (KPAH)
Temperature  
Mean Temperature 24 °F -  
Max Temperature 33 °F 43 °F 70 °F (1992)
Min Temperature 16 °F 25 °F -8 °F (1985)
Degree Days  
Heating Degree Days 40    
Moisture  
Dew Point 16 °F    
Average Humidity 74    
Maximum Humidity 98    
Minimum Humidity 49    
Precipitation  
Precipitation 0.01 in - - ()
Sea Level Pressure  
Sea Level Pressure 30.29 in    
Wind  
Wind Speed 7 mph (North)    
Max Wind Speed 14 mph    
Max Gust Speed 18 mph    
Visibility 8 miles    
Events Snow    
Averages and records for this station are not official NWS values.
T = Trace of Precipitation, MM = Missing Value Source: NWS Daily Summary

Daily Weather History Graph

Daily Weather History Graph

Search for Another Location

Airport or City:

Trip Planner

Search our weather history database for the weather conditions in past years. The results will help you decide how hot, cold, wet, or windy it might be!

Date:

Astronomy

Feb. 03, 2014 Rise Set
Actual Time 6:56 AM CST 5:22 PM CST
Civil Twilight 6:28 AM CST 5:49 PM CST
Nautical Twilight 5:57 AM CST 6:20 PM CST
Astronomical Twilight 5:27 AM CST 6:50 PM CST
Moon 9:05 AM CST (2/3) 10:04 PM CST (2/3)
Length of Visible Light 11h 20m
Length of Day
10h 25m
Waxing Crescent, 20% of the Moon is Illuminated
Feb 3
Waxing Crescent
Feb 6
First Quarter
Feb 14
Full
Feb 22
Last Quarter
Mar 1
New

Hourly Weather History & Observations

Time (CST) Temp. Windchill Dew Point Humidity Pressure Visibility Wind Dir Wind Speed Gust Speed Precip Events Conditions
12:15 AM 25.7 °F 15.1 °F 21.7 °F 85% 30.20 in 7.0 mi NNW 11.5 mph 17.3 mph N/A   Overcast
12:35 AM 25.7 °F 14.6 °F 20.8 °F 82% 30.21 in 7.0 mi NNW 12.7 mph 18.4 mph N/A   Overcast
12:55 AM 25.7 °F 16.4 °F 20.1 °F 79% 30.21 in 7.0 mi North 9.2 mph - N/A   Overcast
1:15 AM 25.7 °F 14.6 °F 20.3 °F 80% 30.21 in 4.0 mi NNW 12.7 mph 17.3 mph N/A Snow Light Snow
1:35 AM 25.5 °F 13.8 °F 20.3 °F 81% 30.21 in 7.0 mi NNW 13.8 mph - N/A   Overcast
1:55 AM 25.2 °F 13.3 °F 19.2 °F 78% 30.21 in 10.0 mi North 13.8 mph 18.4 mph N/A   Overcast
2:15 AM 25.2 °F 17.3 °F 19.4 °F 79% 30.22 in 10.0 mi North 6.9 mph - N/A   Overcast
2:35 AM 25.2 °F 17.3 °F 19.0 °F 78% 30.22 in 10.0 mi North 6.9 mph - N/A   Overcast
2:55 AM 25.2 °F 16.5 °F 19.2 °F 78% 30.24 in 10.0 mi NNW 8.1 mph - N/A   Overcast
3:15 AM 24.8 °F 16.1 °F 19.8 °F 81% 30.25 in 7.0 mi NNW 8.1 mph - N/A   Overcast
3:35 AM 23.9 °F 12.9 °F 18.3 °F 79% 30.25 in 7.0 mi NNW 11.5 mph 16.1 mph N/A   Overcast
3:55 AM 23.4 °F 15.2 °F 17.1 °F 77% 30.25 in 7.0 mi NNW 6.9 mph 16.1 mph N/A   Mostly Cloudy
4:15 AM 22.1 °F 13.7 °F 16.2 °F 78% 30.26 in 7.0 mi NNW 6.9 mph - N/A   Scattered Clouds
4:35 AM 21.6 °F 14.0 °F 15.8 °F 78% 30.25 in 7.0 mi North 5.8 mph - N/A   Clear
4:55 AM 20.5 °F 12.8 °F 15.6 °F 81% 30.26 in 7.0 mi North 5.8 mph - N/A   Scattered Clouds
5:15 AM 21.0 °F 10.6 °F 15.4 °F 79% 30.27 in 7.0 mi NNW 9.2 mph - N/A   Overcast
5:35 AM 21.0 °F 10.6 °F 15.3 °F 78% 30.28 in 7.0 mi NNW 9.2 mph - N/A   Overcast
5:55 AM 21.2 °F 10.1 °F 15.4 °F 78% 30.29 in 7.0 mi NNW 10.4 mph - N/A   Overcast
6:15 AM 20.7 °F 11.0 °F 14.9 °F 78% 30.29 in 7.0 mi North 8.1 mph - N/A   Overcast
6:35 AM 20.1 °F 8.8 °F 14.7 °F 80% 30.29 in 7.0 mi NNW 10.4 mph - N/A   Overcast
6:55 AM 19.4 °F 7.9 °F 13.8 °F 79% 30.30 in 7.0 mi North 10.4 mph - N/A   Mostly Cloudy
7:15 AM 18.5 °F 9.3 °F 13.1 °F 79% 30.31 in 7.0 mi NNW 6.9 mph - N/A   Overcast
7:35 AM 17.6 °F 8.2 °F 12.4 °F 80% 30.31 in 7.0 mi NNW 6.9 mph - N/A   Scattered Clouds
7:55 AM 17.2 °F 7.8 °F 11.8 °F 79% 30.32 in 7.0 mi NNW 6.9 mph - N/A   Clear
8:15 AM 17.8 °F 7.5 °F 11.7 °F 77% 30.33 in 7.0 mi North 8.1 mph - N/A   Clear
8:35 AM 18.3 °F 10.2 °F 11.7 °F 75% 30.34 in 7.0 mi North 5.8 mph - N/A   Clear
8:55 AM 18.5 °F 10.4 °F 11.7 °F 75% 30.35 in 7.0 mi NNW 5.8 mph - N/A   Clear
9:15 AM 19.0 °F 11.1 °F 11.7 °F 73% 30.35 in 10.0 mi NNW 5.8 mph - N/A   Clear
9:35 AM 20.1 °F 12.3 °F 12.2 °F 71% 30.36 in 10.0 mi North 5.8 mph - N/A   Clear
9:55 AM 20.8 °F 14.4 °F 12.6 °F 70% 30.35 in 10.0 mi North 4.6 mph - N/A   Clear
10:15 AM 21.6 °F 16.8 °F 13.1 °F 70% 30.36 in 10.0 mi NNW 3.5 mph - N/A   Clear
10:35 AM 22.3 °F 13.9 °F 13.5 °F 69% 30.36 in 10.0 mi NNW 6.9 mph - N/A   Clear
10:55 AM 23.7 °F 19.3 °F 14.0 °F 66% 30.35 in 10.0 mi North 3.5 mph - N/A   Clear
11:15 AM 25.5 °F 17.8 °F 14.9 °F 64% 30.34 in 10.0 mi North 6.9 mph - N/A   Clear
11:35 AM 26.2 °F 18.6 °F 15.1 °F 63% 30.35 in 10.0 mi NE 6.9 mph - N/A   Clear
11:55 AM 26.6 °F 22.6 °F 15.4 °F 63% 30.34 in 10.0 mi NNW 3.5 mph - 0.01 in   Clear
12:15 PM 27.9 °F 21.5 °F 14.7 °F 58% 30.32 in 10.0 mi NNE 5.8 mph - N/A   Clear
12:35 PM 28.4 °F 20.4 °F 14.5 °F 56% 30.29 in 10.0 mi NNE 8.1 mph - N/A   Clear
12:55 PM 28.9 °F 22.8 °F 14.9 °F 56% 30.29 in 10.0 mi NE 5.8 mph - N/A   Clear
1:15 PM 29.7 °F 23.7 °F 16.3 °F 58% 30.30 in 10.0 mi North 5.8 mph - N/A   Clear
1:35 PM 30.2 °F - 15.8 °F 55% 30.30 in 10.0 mi Calm Calm - N/A   Clear
1:55 PM 30.9 °F 25.2 °F 15.8 °F 54% 30.29 in 10.0 mi North 5.8 mph - N/A   Clear
2:15 PM 30.9 °F - 15.3 °F 52% 30.29 in 10.0 mi Calm Calm - N/A   Clear
2:35 PM 31.1 °F 27.7 °F 15.6 °F 53% 30.29 in 10.0 mi North 3.5 mph - N/A   Clear
2:55 PM 31.6 °F - 16.0 °F 52% 30.29 in 10.0 mi Calm Calm - N/A   Clear
3:15 PM 33.1 °F 30.0 °F 15.8 °F 49% 30.30 in 10.0 mi East 3.5 mph - N/A   Clear
3:35 PM 32.4 °F 29.1 °F 15.6 °F 50% 30.29 in 10.0 mi East 3.5 mph - N/A   Clear
3:55 PM 31.8 °F 28.5 °F 15.4 °F 51% 30.29 in 10.0 mi NNE 3.5 mph - N/A   Clear
4:15 PM 31.5 °F - 15.4 °F 52% 30.30 in 10.0 mi Calm Calm - N/A   Clear
4:35 PM 31.5 °F - 16.2 °F 53% 30.30 in 10.0 mi Calm Calm - N/A   Clear
4:55 PM 31.5 °F - 15.6 °F 52% 30.29 in 10.0 mi Calm Calm - N/A   Clear
5:15 PM 30.0 °F - 15.8 °F 56% 30.30 in 10.0 mi Calm Calm - N/A   Clear
5:35 PM 27.9 °F - 15.8 °F 61% 30.30 in 10.0 mi Calm Calm - N/A   Clear
5:55 PM 27.9 °F - 16.2 °F 62% 30.31 in 10.0 mi Calm Calm - N/A   Clear
6:15 PM 26.6 °F - 16.5 °F 66% 30.31 in 10.0 mi Calm Calm - N/A   Clear
6:35 PM 23.5 °F - 14.7 °F 69% 30.32 in 10.0 mi Calm Calm - N/A   Clear
6:55 PM 22.6 °F - 15.4 °F 74% 30.32 in 7.0 mi Calm Calm - N/A   Clear
7:15 PM 21.9 °F - 16.5 °F 80% 30.31 in 10.0 mi Calm Calm - N/A   Clear
7:35 PM 19.2 °F - 14.2 °F 81% 30.32 in 7.0 mi Calm Calm - N/A   Clear
7:55 PM 18.7 °F - 15.6 °F 88% 30.32 in 7.0 mi Calm Calm - N/A   Clear
8:15 PM 18.3 °F - 17.6 °F 97% 30.32 in 5.0 mi Calm Calm - N/A   Clear
8:35 PM 19.0 °F - 18.0 °F 96% 30.32 in 5.0 mi Calm Calm - N/A   Clear
8:55 PM 16.5 °F 11.0 °F 14.7 °F 93% 30.31 in 5.0 mi ENE 3.5 mph - N/A   Clear
9:15 PM 16.7 °F - 15.6 °F 96% 30.31 in 5.0 mi Calm Calm - N/A   Clear
9:35 PM 18.3 °F - 17.1 °F 95% 30.30 in 5.0 mi Calm Calm - N/A   Clear
9:55 PM 18.1 °F - 16.9 °F 95% 30.30 in 5.0 mi Calm Calm - N/A   Clear
10:15 PM 18.1 °F - 17.6 °F 98% 30.31 in 5.0 mi Calm Calm - N/A   Clear
10:35 PM 18.7 °F - 18.0 °F 97% 30.30 in 5.0 mi Calm Calm - N/A   Clear
10:55 PM 17.8 °F - 16.9 °F 96% 30.30 in 4.0 mi Calm Calm - N/A   Clear
11:15 PM 18.5 °F - 17.8 °F 97% 30.30 in 5.0 mi Calm Calm - N/A   Clear
11:35 PM 17.8 °F - 16.9 °F 96% 30.29 in 5.0 mi Calm Calm - N/A   Clear
11:55 PM 20.1 °F 15.2 °F 18.0 °F 91% 30.28 in 5.0 mi ENE 3.5 mph - N/A   Clear